"Gas Day","BTU","CHDP","Wobbe Index","CO2","N2","Gravity","Methane","Ethane","Propane","Ibutane","Nbutane","Ipentane","Npentane","C6+"
"2024-05-01 00:00:00.0","1014.4954","-46.3949","1336.7633","0.3425","1.4693","0.5760","95.9841","2.0467","0.1198","0.0087","0.0149","0.0042","0.0036","0.0062"
"2024-04-30 00:00:00.0","1015.6961","-42.3879","1340.2812","0.2828","1.3312","0.5743","96.2929","1.9376","0.1148","0.0087","0.0157","0.0047","0.0042","0.0074"
"2024-04-29 00:00:00.0","1016.8860","-37.9124","1343.3564","0.2763","1.1477","0.5730","96.6012","1.8099","0.1175","0.0097","0.0179","0.0054","0.0050","0.0093"
"2024-04-28 00:00:00.0","1032.3435","-53.7997","1345.4321","0.4432","1.4527","0.5887","93.4875","4.4166","0.1763","0.0041","0.0094","0.0019","0.0029","0.0054"
"2024-04-27 00:00:00.0","1032.0339","-57.1214","1344.9191","0.4488","1.4713","0.5888","93.4745","4.4021","0.1781","0.0045","0.0112","0.0020","0.0031","0.0046"
"2024-04-26 00:00:00.0","1029.6269","-57.3526","1343.9553","0.4369","1.4543","0.5869","93.8271","4.1014","0.1590","0.0037","0.0088","0.0018","0.0026","0.0044"
"2024-04-25 00:00:00.0","1031.0004","-55.7010","1344.8296","0.4355","1.4495","0.5877","93.6920","4.2214","0.1741","0.0049","0.0120","0.0023","0.0034","0.0048"
"2024-04-24 00:00:00.0","1029.7719","-64.7503","1344.5924","0.4476","1.3926","0.5866","93.9194","4.0651","0.1555","0.0033","0.0084","0.0014","0.0027","0.0039"
"2024-04-23 00:00:00.0","1029.8240","-63.3416","1344.4290","0.4537","1.3961","0.5867","93.8874","4.0917","0.1502","0.0034","0.0091","0.0015","0.0028","0.0040"
"2024-04-22 00:00:00.0","1029.7971","-62.5102","1344.1731","0.4549","1.4140","0.5870","93.8591","4.0914","0.1579","0.0037","0.0096","0.0018","0.0032","0.0043"
"2024-04-21 00:00:00.0","1030.1056","-61.7797","1344.3869","0.4529","1.4140","0.5871","93.8256","4.1232","0.1626","0.0036","0.0091","0.0016","0.0029","0.0045"
"2024-04-20 00:00:00.0","1030.0572","-56.6837","1344.4339","0.4407","1.4265","0.5870","93.8361","4.1082","0.1666","0.0037","0.0092","0.0017","0.0028","0.0045"
"2024-04-19 00:00:00.0","1027.9460","-59.9948","1343.6665","0.4312","1.4037","0.5853","94.1753","3.8119","0.1554","0.0041","0.0092","0.0020","0.0029","0.0042"
"2024-04-18 00:00:00.0","1028.0973","-61.5132","1344.4809","0.4357","1.3372","0.5847","94.2829","3.7788","0.1458","0.0035","0.0082","0.0018","0.0024","0.0037"
"2024-04-17 00:00:00.0","1029.7522","-55.5310","1344.7319","0.4464","1.3787","0.5864","93.9676","4.0285","0.1548","0.0043","0.0098","0.0022","0.0031","0.0047"
"2024-04-16 00:00:00.0","1033.0277","-57.4940","1346.4487","0.4499","1.3876","0.5886","93.5379","4.4188","0.1806","0.0049","0.0112","0.0022","0.0029","0.0040"
"2024-04-15 00:00:00.0","1027.1716","-58.5039","1342.7735","0.4114","1.4704","0.5852","94.1672","3.7714","0.1569","0.0046","0.0099","0.0021","0.0025","0.0036"
"2024-04-14 00:00:00.0","1026.9227","-59.6567","1342.5841","0.4074","1.4805","0.5850","94.1713","3.7706","0.1517","0.0036","0.0076","0.0016","0.0021","0.0035"
"2024-04-13 00:00:00.0","1025.7391","-59.5189","1341.7848","0.4044","1.4945","0.5844","94.2886","3.6550","0.1382","0.0038","0.0078","0.0018","0.0022","0.0036"
"2024-04-12 00:00:00.0","1024.8427","-59.3494","1341.9037","0.4153","1.4256","0.5833","94.5398","3.4640","0.1353","0.0039","0.0082","0.0019","0.0024","0.0037"
"2024-04-11 00:00:00.0","1026.0912","-59.4032","1342.1227","0.4246","1.4526","0.5845","94.3089","3.6438","0.1491","0.0039","0.0088","0.0019","0.0026","0.0040"
"2024-04-10 00:00:00.0","1027.9595","-63.4932","1343.1840","0.4353","1.4379","0.5857","94.0718","3.8845","0.1524","0.0033","0.0070","0.0014","0.0024","0.0040"
"2024-04-09 00:00:00.0","1027.9491","-59.7718","1343.3458","0.4257","1.4387","0.5856","94.0960","3.8689","0.1506","0.0037","0.0084","0.0017","0.0025","0.0040"
"2024-04-08 00:00:00.0","1029.5428","-61.1680","1343.7340","0.4270","1.4806","0.5870","93.8013","4.1089","0.1611","0.0037","0.0089","0.0018","0.0028","0.0041"
"2024-04-07 00:00:00.0","1029.0263","-62.7113","1343.0420","0.4335","1.5032","0.5871","93.7935","4.0941","0.1556","0.0033","0.0082","0.0016","0.0027","0.0042"
"2024-04-06 00:00:00.0","1028.3878","-61.0807","1342.9851","0.4321","1.4796","0.5864","93.9235","3.9984","0.1471","0.0034","0.0083","0.0014","0.0023","0.0039"
"2024-04-05 00:00:00.0","1030.0982","-58.2563","1343.6262","0.4415","1.4939","0.5878","93.6646","4.2173","0.1614","0.0036","0.0092","0.0016","0.0028","0.0040"
"2024-04-04 00:00:00.0","1031.9161","-58.5050","1344.8395","0.4371","1.4869","0.5888","93.4789","4.3927","0.1809","0.0041","0.0101","0.0020","0.0030","0.0042"
"2024-04-03 00:00:00.0","1028.1028","-61.9407","1342.5559","0.4369","1.4941","0.5864","93.9259","3.9680","0.1552","0.0034","0.0082","0.0017","0.0028","0.0040"
"2024-04-02 00:00:00.0","1024.3423","-57.2437","1342.2608","0.4033","1.3903","0.5824","94.7630","3.2464","0.1707","0.0057","0.0113","0.0023","0.0030","0.0040"
"2024-04-01 00:00:00.0","1024.4858","-59.7173","1341.6371","0.4192","1.4246","0.5831","94.5803","3.4190","0.1373","0.0038","0.0081","0.0018","0.0024","0.0036"
"2024-03-31 00:00:00.0","1026.1519","-51.5472","1344.1163","0.4263","1.2892","0.5828","94.6806","3.4359","0.1437","0.0053","0.0093","0.0025","0.0026","0.0047"
"2024-03-30 00:00:00.0","1026.0328","-51.8619","1343.5160","0.4268","1.3320","0.5832","94.6043","3.4606","0.1514","0.0053","0.0097","0.0026","0.0027","0.0047"
"2024-03-29 00:00:00.0","1027.8881","-52.6097","1344.0256","0.4396","1.3586","0.5849","94.2750","3.7439","0.1598","0.0047","0.0089","0.0023","0.0027","0.0045"
"2024-03-28 00:00:00.0","1027.8635","-50.0118","1343.6693","0.4428","1.3816","0.5852","94.2417","3.7364","0.1683","0.0057","0.0114","0.0030","0.0036","0.0055"
"2024-03-27 00:00:00.0","1031.7637","-54.5428","1345.4675","0.4450","1.4156","0.5881","93.6670","4.2532","0.1922","0.0048","0.0113","0.0025","0.0036","0.0048"
"2024-03-26 00:00:00.0","1035.6955","-54.4820","1347.5299","0.4614","1.4075","0.5907","93.1486","4.7501","0.2056","0.0051","0.0107","0.0025","0.0035","0.0051"
"2024-03-25 00:00:00.0","1030.8118","-57.2172","1344.9433","0.4396","1.4221","0.5874","93.7509","4.1997","0.1648","0.0042","0.0094","0.0021","0.0029","0.0042"
"2024-03-24 00:00:00.0","1031.4708","-57.9960","1345.1184","0.4443","1.4317","0.5880","93.6421","4.2833","0.1754","0.0044","0.0098","0.0021","0.0029","0.0040"
"2024-03-23 00:00:00.0","1033.1313","-56.2743","1346.0383","0.4356","1.4480","0.5891","93.4219","4.4849","0.1854","0.0044","0.0097","0.0022","0.0031","0.0048"
"2024-03-22 00:00:00.0","1036.3635","-53.1825","1347.7766","0.4380","1.4543","0.5913","93.0335","4.8203","0.2232","0.0057","0.0130","0.0026","0.0039","0.0054"
"2024-03-21 00:00:00.0","1034.2037","-52.5400","1346.6896","0.4381","1.4411","0.5898","93.3302","4.5545","0.2023","0.0065","0.0150","0.0031","0.0041","0.0051"
"2024-03-20 00:00:00.0","1034.7254","-59.0549","1347.0356","0.4446","1.4278","0.5901","93.2438","4.6696","0.1892","0.0046","0.0109","0.0022","0.0032","0.0042"
"2024-03-19 00:00:00.0","1034.2662","-57.8935","1346.7530","0.4491","1.4225","0.5898","93.3014","4.6188","0.1837","0.0040","0.0102","0.0020","0.0034","0.0049"
"2024-03-18 00:00:00.0","1034.6559","-61.5336","1346.9531","0.4499","1.4234","0.5900","93.2464","4.6660","0.1935","0.0039","0.0085","0.0016","0.0026","0.0042"
"2024-03-17 00:00:00.0","1033.1757","-64.3741","1346.0853","0.4488","1.4263","0.5891","93.4223","4.5010","0.1799","0.0040","0.0093","0.0018","0.0029","0.0038"
"2024-03-16 00:00:00.0","1032.7202","-62.4364","1345.6600","0.4651","1.4150","0.5890","93.4615","4.4662","0.1713","0.0035","0.0087","0.0015","0.0027","0.0045"
"2024-03-15 00:00:00.0","1032.9775","-61.5808","1345.8661","0.4667","1.4078","0.5891","93.4438","4.4868","0.1736","0.0038","0.0089","0.0016","0.0027","0.0043"
"2024-03-14 00:00:00.0","1033.0296","-58.8278","1346.2060","0.4542","1.4012","0.5889","93.4797","4.4696","0.1751","0.0039","0.0083","0.0018","0.0025","0.0039"
"2024-03-13 00:00:00.0","1033.0782","-62.9707","1346.1678","0.4636","1.3925","0.5889","93.4599","4.4990","0.1659","0.0033","0.0082","0.0015","0.0024","0.0037"
"2024-03-12 00:00:00.0","1034.2815","-64.0980","1346.6800","0.4736","1.3922","0.5899","93.2825","4.6652","0.1667","0.0035","0.0085","0.0015","0.0025","0.0037"
"2024-03-11 00:00:00.0","1034.5551","-61.4651","1347.0683","0.4675","1.3824","0.5898","93.2942","4.6639","0.1697","0.0039","0.0092","0.0020","0.0031","0.0040"
"2024-03-10 00:00:00.0","1032.8617","-59.9018","1346.2020","0.4611","1.3830","0.5887","93.5302","4.4342","0.1675","0.0042","0.0100","0.0021","0.0034","0.0043"
"2024-03-09 00:00:00.0","1032.1457","-58.0026","1345.6202","0.4740","1.3773","0.5884","93.6045","4.3564","0.1631","0.0042","0.0104","0.0021","0.0032","0.0047"
"2024-03-08 00:00:00.0","1034.0766","-62.6877","1346.5040","0.4793","1.3883","0.5898","93.3220","4.6124","0.1752","0.0042","0.0094","0.0020","0.0030","0.0042"
"2024-03-07 00:00:00.0","1031.8450","-65.7790","1345.3893","0.4627","1.3996","0.5882","93.5835","4.3897","0.1466","0.0032","0.0077","0.0014","0.0024","0.0034"
"2024-03-06 00:00:00.0","1031.8479","-64.1075","1345.6361","0.4561","1.3892","0.5880","93.6362","4.3457","0.1522","0.0035","0.0085","0.0016","0.0028","0.0042"
"2024-03-05 00:00:00.0","1032.2016","-63.2951","1345.7821","0.4574","1.3921","0.5883","93.5792","4.3963","0.1562","0.0034","0.0079","0.0014","0.0024","0.0037"
"2024-03-04 00:00:00.0","1033.2317","-65.1425","1346.2601","0.4655","1.3895","0.5890","93.4296","4.5379","0.1612","0.0033","0.0069","0.0012","0.0020","0.0029"
"2024-03-03 00:00:00.0","1034.4993","-64.7091","1346.7784","0.4729","1.3957","0.5900","93.2425","4.7054","0.1655","0.0033","0.0076","0.0014","0.0023","0.0035"
"2024-03-02 00:00:00.0","1033.0674","-63.9174","1346.0780","0.4654","1.3967","0.5890","93.4391","4.5259","0.1521","0.0034","0.0085","0.0017","0.0030","0.0042"
"2024-03-01 00:00:00.0","1033.8636","-62.9669","1346.5998","0.4617","1.3969","0.5895","93.3734","4.5700","0.1741","0.0039","0.0098","0.0019","0.0035","0.0048"
"2024-02-29 00:00:00.0","1033.2986","-61.7325","1346.2635","0.4630","1.3957","0.5891","93.4632","4.4663","0.1863","0.0041","0.0105","0.0022","0.0040","0.0050"
"2024-02-28 00:00:00.0","1032.1034","-73.6550","1345.4595","0.4571","1.4148","0.5884","93.5005","4.4697","0.1515","0.0021","0.0030","0.0000","0.0000","0.0013"
"2024-02-27 00:00:00.0","1032.1034","-73.6550","1345.4595","0.4571","1.4148","0.5884","93.5005","4.4697","0.1515","0.0021","0.0030","0.0000","0.0000","0.0013"
"2024-02-26 00:00:00.0","1029.3529","-83.9532","1343.7726","0.4479","1.4370","0.5868","93.8299","4.1242","0.1547","0.0022","0.0034","0.0000","0.0000","0.0006"
"2024-02-25 00:00:00.0","1029.8832","-59.9751","1343.8170","0.4666","1.4297","0.5873","93.7782","4.1513","0.1516","0.0036","0.0093","0.0018","0.0033","0.0045"
"2024-02-24 00:00:00.0","1029.4864","-63.5787","1343.6304","0.4685","1.4234","0.5871","93.8320","4.1073","0.1486","0.0032","0.0081","0.0016","0.0028","0.0045"
"2024-02-23 00:00:00.0","1028.8845","-63.2827","1343.0755","0.4777","1.4265","0.5869","93.8792","4.0499","0.1467","0.0032","0.0083","0.0016","0.0027","0.0042"
"2024-02-22 00:00:00.0","1030.6673","-66.8063","1344.2259","0.4902","1.3974","0.5879","93.7006","4.2281","0.1635","0.0035","0.0088","0.0016","0.0027","0.0037"
"2024-02-21 00:00:00.0","1030.1890","-60.8365","1344.2674","0.4628","1.4129","0.5873","93.7875","4.1588","0.1571","0.0035","0.0088","0.0015","0.0028","0.0043"
"2024-02-20 00:00:00.0","1030.6154","-63.5022","1344.7469","0.4234","1.4539","0.5874","93.7013","4.2611","0.1441","0.0029","0.0071","0.0012","0.0021","0.0029"
"2024-02-19 00:00:00.0","1029.9326","-60.2025","1344.2628","0.4207","1.4652","0.5870","93.7816","4.1638","0.1507","0.0031","0.0076","0.0014","0.0024","0.0034"
"2024-02-18 00:00:00.0","1030.3584","-53.6800","1344.4175","0.4227","1.4695","0.5874","93.7364","4.1868","0.1614","0.0038","0.0101","0.0017","0.0030","0.0046"
"2024-02-17 00:00:00.0","1030.8004","-57.4435","1344.6089","0.4333","1.4587","0.5877","93.6749","4.2498","0.1620","0.0035","0.0089","0.0017","0.0030","0.0042"
"2024-02-16 00:00:00.0","1031.0561","-60.3442","1345.2825","0.4312","1.4187","0.5874","93.7227","4.2579","0.1501","0.0033","0.0083","0.0015","0.0026","0.0037"
"2024-02-15 00:00:00.0","1031.1898","-61.2724","1345.1957","0.4286","1.4361","0.5876","93.6725","4.2894","0.1554","0.0031","0.0075","0.0014","0.0024","0.0036"
"2024-02-14 00:00:00.0","1031.1647","-64.8251","1345.5985","0.4253","1.4069","0.5873","93.7200","4.3014","0.1309","0.0028","0.0067","0.0011","0.0020","0.0030"
"2024-02-13 00:00:00.0","1031.2395","-60.1483","1346.0855","0.4236","1.3727","0.5869","93.8250","4.2069","0.1527","0.0032","0.0083","0.0014","0.0025","0.0037"
"2024-02-12 00:00:00.0","1030.5139","-61.4513","1345.4701","0.4372","1.3685","0.5866","93.8762","4.1655","0.1354","0.0030","0.0073","0.0013","0.0023","0.0034"
"2024-02-11 00:00:00.0","1029.7033","-64.6532","1344.5586","0.4290","1.4176","0.5865","93.8762","4.1322","0.1292","0.0028","0.0066","0.0012","0.0021","0.0031"
"2024-02-10 00:00:00.0","1030.3389","-63.6884","1344.8457","0.4435","1.4021","0.5870","93.7935","4.2184","0.1270","0.0027","0.0065","0.0012","0.0019","0.0031"
"2024-02-09 00:00:00.0","1032.0816","-64.4777","1345.8329","0.4404","1.4083","0.5881","93.5651","4.4346","0.1378","0.0026","0.0057","0.0010","0.0017","0.0029"
"2024-02-08 00:00:00.0","1032.9798","-63.9981","1346.3751","0.4543","1.3851","0.5886","93.4731","4.5325","0.1412","0.0026","0.0057","0.0010","0.0017","0.0028"
"2024-02-07 00:00:00.0","1031.1449","-65.3984","1345.2444","0.4612","1.3807","0.5875","93.6939","4.3205","0.1306","0.0024","0.0055","0.0009","0.0015","0.0027"
"2024-02-06 00:00:00.0","1033.4995","-61.3284","1346.6069","0.4882","1.3389","0.5890","93.4456","4.5641","0.1476","0.0028","0.0064","0.0011","0.0019","0.0034"
"2024-02-05 00:00:00.0","1036.6737","-61.3477","1348.5149","0.4968","1.3195","0.5910","93.0662","4.9452","0.1570","0.0028","0.0064","0.0010","0.0019","0.0034"
"2024-02-04 00:00:00.0","1036.4782","-62.1499","1348.4746","0.5056","1.3000","0.5908","93.1113","4.9151","0.1528","0.0028","0.0062","0.0010","0.0020","0.0031"
"2024-02-03 00:00:00.0","1037.8941","-55.9559","1349.0812","0.4954","1.3317","0.5919","92.9993","4.9185","0.2123","0.0088","0.0208","0.0035","0.0048","0.0048"
